Weather History for George, South Africa

Change the Weather History Date:

Saturday, March 8, 2014

  Actual Average Record
Temperature  
Mean Temperature 64 °F -  
Max Temperature 70 °F 72 °F 86 °F (2003)
Min Temperature 59 °F 56 °F 53 °F (2007)
Growing Degree Days 14 (Base 50)    
Moisture  
Dew Point 58 °F    
Average Humidity 79    
Maximum Humidity 94    
Minimum Humidity 53    
Precipitation  
Precipitation 0.02 in - - ()
Sea Level Pressure  
Sea Level Pressure 30.00 in    
Wind  
Wind Speed 7 mph ()    
Max Wind Speed 15 mph    
Max Gust Speed -    
Visibility 6.5 miles    
Events Rain    
Averages and records for this station are not official NWS values.
T = Trace of Precipitation, MM = Missing Value Source: Averaged Metar Reports

Daily Weather History Graph

Daily Weather History Graph

Search for Another Location

Airport:

Trip Planner

Search our weather history database for the weather conditions in past years. The results will help you decide how hot, cold, wet, or windy it might be!

Date:

Astronomy

Mar. 08, 2014 Rise Set
Actual Time 6:23 AM SAST 6:58 PM SAST
Civil Twilight 5:58 AM SAST 7:23 PM SAST
Nautical Twilight 5:29 AM SAST 7:52 PM SAST
Astronomical Twilight 4:58 AM SAST 8:22 PM SAST
Moon 1:24 PM SAST (3/8) 11:56 PM SAST (3/8)
Length of Visible Light 13h 24m
Length of Day
12h 34m
Waxing Crescent, 49% of the Moon is Illuminated
Mar 8
Waxing Crescent
Mar 8
First Quarter
Mar 16
Full
Mar 24
Last Quarter
Mar 30
New

Hourly Weather History & Observations

Time (SAST) Temp. Dew Point Humidity Pressure Visibility Wind Dir Wind Speed Gust Speed Precip Events Conditions
2:00 AM 66 °F 61 °F 78% 29.95 in 6 mi WSW 4.6 mph - -  
2:00 AM 66.2 °F 60.8 °F 83% 29.95 in 6.2 mi WSW 4.6 mph - N/A   Overcast
3:00 AM 64.4 °F 60.8 °F 88% 29.95 in 4.3 mi SW 5.8 mph - N/A   Mostly Cloudy
4:00 AM 62.6 °F 60.8 °F 94% 29.92 in - SW 11.5 mph - N/A   Mostly Cloudy
5:00 AM 63 °F 61 °F 90% 29.94 in 2 mi West 6.9 mph - - Rain Light Rain
5:00 AM 62.6 °F 60.8 °F 94% 29.95 in 1.9 mi West 6.9 mph - N/A Rain Light Rain
6:00 AM 62.6 °F 59.0 °F 88% 29.95 in 1.9 mi NW 8.1 mph - N/A Rain Light Rain
7:00 AM 62.6 °F 59.0 °F 88% 29.95 in 6.2 mi NW 8.1 mph - N/A   Mostly Cloudy
8:00 AM 62 °F 57 °F 79% 29.99 in 12 mi NNW 8.1 mph - -   Partly Cloudy
8:00 AM 62.6 °F 57.2 °F 82% 29.98 in 6.2 mi NNW 8.1 mph - N/A   Mostly Cloudy
9:00 AM 64.4 °F 57.2 °F 77% 29.98 in 6.2 mi WNW 10.4 mph - N/A   Mostly Cloudy
10:00 AM 64.4 °F 57.2 °F 77% 30.01 in 6.2 mi WNW 9.2 mph - N/A   Mostly Cloudy
11:00 AM 66 °F 56 °F 63% 29.99 in 12 mi WNW 9.2 mph - -   Mostly Cloudy
11:00 AM 66.2 °F 57.2 °F 73% 30.01 in 6.2 mi WNW 9.2 mph - N/A   Mostly Cloudy
12:00 PM 68.0 °F 55.4 °F 64% 29.98 in 6.2 mi WNW 9.2 mph - N/A   Mostly Cloudy
1:00 PM 69.8 °F 55.4 °F 60% 29.98 in 6.2 mi NW 4.6 mph - N/A   Mostly Cloudy
2:00 PM 69 °F 56 °F 53% 30.00 in 12 mi SSW 12.7 mph - -   Mostly Cloudy
2:00 PM 69.8 °F 55.4 °F 60% 29.98 in 6.2 mi SSW 12.7 mph - N/A   Scattered Clouds
3:00 PM 68.0 °F 59.0 °F 73% 29.98 in 6.2 mi SSW 15.0 mph - N/A   Mostly Cloudy
4:00 PM 64.4 °F 59.0 °F 83% 30.01 in 6.2 mi South 13.8 mph - N/A   Mostly Cloudy
5:00 PM 64 °F 58 °F 75% 30.02 in 6 mi South 9.2 mph - -   Mostly Cloudy
5:00 PM 64.4 °F 57.2 °F 77% 30.01 in 5.6 mi South 9.2 mph - N/A   Mostly Cloudy
6:00 PM 62.6 °F 57.2 °F 82% 30.04 in 6.2 mi South 8.1 mph - N/A   Mostly Cloudy
7:00 PM 62.6 °F 53.6 °F 72% 30.04 in 6.2 mi South 6.9 mph - N/A   Mostly Cloudy
8:00 PM 60 °F 56 °F 84% 30.08 in 12 mi WNW 6.9 mph - -   Overcast
8:00 PM 60.8 °F 57.2 °F 88% 30.06 in 6.2 mi WNW 6.9 mph - N/A   Mostly Cloudy
9:00 PM 60.8 °F 55.4 °F 82% 30.09 in 6.2 mi Variable 2.3 mph - N/A   Overcast
10:00 PM 59.0 °F 55.4 °F 88% 30.09 in 6.2 mi NNW 4.6 mph - N/A   Overcast
11:00 PM 59.0 °F 55.4 °F 88% 30.09 in 6.2 mi North 4.6 mph - N/A   Overcast